TimeEST,TemperatureF,Dew PointF,Humidity,Sea Level PressureIn,VisibilityMPH,Wind Direction,Wind SpeedMPH,Gust SpeedMPH,PrecipitationIn,Events,Conditions,WindDirDegrees,DateUTC
12:51 AM,44.1,35.1,71,30.02,10.0,North,3.5,-,N/A,,Clear,350,2013-02-14 05:51:00
1:51 AM,42.8,35.6,76,30.03,10.0,Calm,Calm,-,N/A,,Clear,0,2013-02-14 06:51:00
2:51 AM,39.0,35.1,86,30.03,10.0,Calm,Calm,-,N/A,,Clear,0,2013-02-14 07:51:00
3:51 AM,39.2,35.6,87,30.01,10.0,NNW,3.5,-,N/A,,Clear,330,2013-02-14 08:51:00
4:51 AM,37.0,34.0,89,30.02,10.0,WNW,4.6,-,N/A,,Clear,300,2013-02-14 09:51:00
5:51 AM,37.4,33.8,87,30.04,9.0,Calm,Calm,-,N/A,,Clear,0,2013-02-14 10:51:00
6:51 AM,37.4,33.8,87,30.06,9.0,NNW,3.5,-,N/A,,Clear,340,2013-02-14 11:51:00
7:51 AM,37.9,34.0,86,30.06,10.0,Calm,Calm,-,N/A,,Clear,0,2013-02-14 12:51:00
8:51 AM,39.9,33.1,77,30.09,10.0,North,3.5,-,N/A,,Clear,350,2013-02-14 13:51:00
9:51 AM,42.1,34.0,73,30.12,10.0,Calm,Calm,-,N/A,,Clear,0,2013-02-14 14:51:00
10:51 AM,44.1,35.1,71,30.12,10.0,NNE,4.6,-,N/A,,Clear,30,2013-02-14 15:51:00
11:51 AM,46.9,36.0,66,30.11,10.0,Calm,Calm,-,N/A,,Clear,0,2013-02-14 16:51:00
12:51 PM,48.9,36.0,61,30.09,10.0,Calm,Calm,-,N/A,,Clear,0,2013-02-14 17:51:00
1:51 PM,52.0,36.0,54,30.08,10.0,NNW,4.6,-,N/A,,Clear,330,2013-02-14 18:51:00
2:51 PM,53.1,37.0,55,30.05,10.0,Calm,Calm,-,N/A,,Clear,0,2013-02-14 19:51:00
3:51 PM,55.9,37.0,49,30.03,10.0,Variable,3.5,-,N/A,,Clear,0,2013-02-14 20:51:00
4:51 PM,57.0,33.1,40,30.03,10.0,NNW,8.1,-,N/A,,Clear,330,2013-02-14 21:51:00
5:51 PM,57.0,34.0,42,30.03,10.0,North,5.8,-,N/A,,Clear,350,2013-02-14 22:51:00
6:51 PM,52.0,36.0,54,30.05,10.0,South,3.5,-,N/A,,Clear,170,2013-02-14 23:51:00
7:51 PM,48.9,37.9,66,30.06,10.0,Calm,Calm,-,N/A,,Clear,0,2013-02-15 00:51:00
8:51 PM,46.9,39.0,74,30.08,10.0,Calm,Calm,-,N/A,,Clear,0,2013-02-15 01:51:00
9:51 PM,45.0,37.9,76,30.09,8.0,Calm,Calm,-,N/A,,Clear,0,2013-02-15 02:51:00
10:51 PM,42.1,37.9,85,30.10,7.0,Calm,Calm,-,N/A,,Clear,0,2013-02-15 03:51:00
11:51 PM,42.1,37.9,85,30.09,7.0,Calm,Calm,-,N/A,,Clear,0,2013-02-15 04:51:00